Location: ????
(33.1659°N, 35.6604°E)
Time: 05:40:17
(UTC+00:00)

COSMOS 2455 - Pass Details

Date: 20 September 2019
Orbit: 900 x 909 km, 67.1° (Epoch: 21 October)

Event Time Altitude Azimuth Distance (km) Brightness Sun altitude
Rises 16:42:07 0° 329° (NNW) 3,540 6.6 -14.3°
Reaches altitude 10° 16:44:40 10° 325° (NW) 2,594 5.9 -14.8°
Maximum altitude 16:50:32 56° 249° (WSW) 1,069 3.5 -16.0°
Drops below altitude 10° 16:56:21 10° 172° (S) 2,575 5.0 -17.2°
Sets 16:58:53 0° 168° (SSE) 3,512 5.7 -17.7°
